[[{"header":{"parameterUnit":"m.s-1","parameterCategory":1,"la1":30.2991,"la2":30.254,"lo1":-89.0895,"lo2":-89.0444,"dy":0.0017,"dx":0.0017,"nx":28,"ny":28,"refTime":"2026-01-07T09:00:00:Z","depth":0,"parameterNumber":2,"parameterNumberName":"U-component_of_WINDS"},"data":[0,0,0,0,0,0,0,0,0,0,0,0,0,0,0,0,0,0,0,0,0,0,0,0,0,0,0,0,0,0,0,0,0,0,0,0,0,0,0,0,0,0,0,0,0,0,0,0,0,0,0,0,0,0,0,0,0,0,0.477,0.4771,0,0.4822,0.4823,0.4823,0.4837,0.4836,0.4836,0.4836,0.4891,0.4892,0.4894,0,0,0,0,0,0,0,0,0,0,0,0,0,0.4685,0.4687,0.477,0.4771,0.4772,0.4822,0.4823,0.4824,0.4837,0.4836,0.4836,0.4836,0.489,0.4892,0.4894,0,0,0,0,0,0,0,0,0,0,0,0,0,0.4728,0.4687,0.477,0.4784,0.4786,0.4822,0.4823,0.4824,0.4837,0.4836,0.4836,0.4835,0.4889,0.4892,0.4895,0.4921,0,0,0.4903,0.4904,0,0,0,0,0,0,0,0,0.4726,0.4731,0.4782,0.4783,0.4785,0.4823,0.4813,0.4856,0.4837,0.4818,0.4836,0.4835,0.4868,0.4873,0.4884,0.4923,0.4926,0.4903,0.4904,0.4906,0.4906,0,0,0,0,0,0,0,0.4723,0.4729,0.4791,0.4782,0.4785,0.4789,0.4794,0.4821,0.4845,0.4819,0.482,0.4826,0.4869,0.4881,0.4885,0.4926,0.4903,0.4905,0.4907,0.4908,0.4992,0.4993,0,0,0,0,0,0,0.4717,0.4727,0.4789,0.4793,0.4754,0.4791,0.4797,0.4811,0.4845,0.485,0.4827,0.4827,0.4877,0.4882,0.4887,0.4921,0.4906,0.4908,0.491,0.4992,0.4992,0.4993,0,0,0,0,0,0,0.4715,0.4723,0.4787,0.476,0.4768,0.4793,0.4809,0.4812,0.4824,0.4851,0.4855,0.4834,0.4877,0.4883,0.4913,0.4923,0.4909,0.4912,0.4991,0.4992,0.4993,0.4989,0,0,0,0,0,0,0.4713,0.4722,0.4731,0.476,0.477,0.4811,0.4809,0.4814,0.4828,0.4829,0.4859,0.4863,0.4877,0.4909,0.4915,0.4927,0.4914,0.499,0.4991,0.4992,0.4989,0.499,0.4991,0,0,0,0,0,0.471,0.4728,0.4732,0.4739,0.4782,0.4812,0.4817,0.4832,0.4829,0.484,0.4857,0.4862,0.4921,0.4911,0.4919,0.4932,0.4989,0.4991,0.4992,0.4988,0.499,0.4991,0,0,0,0,0,0,0.47,0.4732,0.4736,0.4764,0.4785,0.4814,0.4827,0.4833,0.4856,0.4855,0.4874,0.488,0.4909,0.4923,0.4912,0.496,0.4955,0.4958,0.4949,0.4951,0.4953,0.4949,0.4916,0,0,0,0,0,0.4701,0.4722,0.4749,0.4771,0.4781,0.4802,0.4816,0.4826,0.4848,0.4857,0.4876,0.4898,0.4922,0.4937,0.496,0.4991,0.4998,0.5003,0.5004,0.5005,0.5008,0.5027,0.503,0.4998,0.4998,0.4998,0,0,0.4704,0.4724,0.4736,0.477,0.4787,0.4809,0.481,0.4833,0.485,0.4861,0.489,0.4905,0.4931,0.4961,0.4975,0.4974,0.5019,0.5007,0.5008,0.501,0.5029,0.5032,0.5035,0.4999,0.4999,0.4999,0,0,0.472,0.4737,0.4758,0.4775,0.4801,0.4816,0.4821,0.4849,0.4859,0.4889,0.4898,0.4919,0.4958,0.4977,0.4992,0.5017,0.5023,0.5024,0.5031,0.505,0.5052,0.5055,0.5065,0.5068,0.5026,0.5026,0.5026,0,0.472,0.4753,0.4768,0.4791,0.4807,0.4818,0.484,0.4856,0.4889,0.49,0.4897,0.4949,0.4967,0.5003,0.5009,0.502,0.5028,0.5021,0.505,0.5053,0.5055,0.5066,0.5069,0.5026,0.5026,0.5026,0.5026,0,0.4753,0.4776,0.479,0.4821,0.4838,0.486,0.488,0.4896,0.4904,0.4919,0.495,0.4972,0.5001,0.501,0.5018,0.5047,0.5046,0.5047,0.5043,0.5058,0.5068,0.5072,0.5026,0.5026,0.5026,0.5026,0,0,0.4764,0.4804,0.4809,0.4824,0.4855,0.4873,0.4897,0.4925,0.4938,0.4961,0.4982,0.5016,0.5018,0.5035,0.5045,0.5061,0.5082,0.5061,0.5062,0.5065,0.5117,0.5117,0.5121,0.5086,0.5087,0.5087,0.5115,0,0.4785,0.4827,0.4842,0.4878,0.49,0.4912,0.4933,0.4954,0.4969,0.4991,0.5007,0.5032,0.5031,0.5041,0.5057,0.5076,0.5093,0.5074,0.5107,0.5108,0.5102,0.5126,0.5126,0.5152,0.5119,0.512,0.512,0,0.4815,0.4838,0.4876,0.4905,0.4915,0.4933,0.4961,0.4981,0.5007,0.5016,0.5036,0.5046,0.5072,0.5066,0.5104,0.5091,0.5106,0.5117,0.5119,0.5123,0.5116,0.5133,0.516,0.5164,0.5126,0.5126,0.5126,0,0.4821,0.4862,0.489,0.4902,0.4937,0.495,0.4965,0.499,0.5006,0.503,0.5042,0.5069,0.5084,0.5105,0.5123,0.5116,0.516,0.5155,0.517,0.517,0.5179,0.5179,0.521,0.5186,0.5186,0.5186,0.5186,0,0.4844,0.4867,0.4894,0.4911,0.4938,0.4955,0.4981,0.4997,0.5019,0.5041,0.5052,0.5073,0.5094,0.5118,0.5132,0.5162,0.5168,0.5178,0.5182,0.5178,0.5177,0.5189,0.5188,0.5187,0.5187,0.5187,0.5187,0,0.4855,0.4874,0.4906,0.4936,0.4944,0.4963,0.4989,0.5007,0.5023,0.505,0.5058,0.5083,0.5111,0.5131,0.5167,0.5176,0.521,0.5212,0.5201,0.5203,0.5218,0.5217,0.5259,0.5266,0.5236,0.5237,0.5237,0,0.4869,0.4887,0.492,0.4935,0.495,0.4974,0.4991,0.501,0.5027,0.5058,0.5073,0.5102,0.5127,0.5172,0.5193,0.5222,0.5226,0.5239,0.523,0.5227,0.5228,0.5228,0.523,0.5241,0.5241,0.5241,0.5241,0,0.4892,0.49,0.4924,0.4952,0.4972,0.4995,0.5018,0.503,0.5052,0.5072,0.5101,0.512,0.5157,0.5187,0.5217,0.5234,0.5242,0.5244,0.5249,0.5246,0.5239,0.5245,0.5206,0.5243,0.5243,0.5243,0.5242,0.5242,0.4906,0.4923,0.4949,0.4976,0.4995,0.5017,0.5036,0.5054,0.5079,0.5111,0.512,0.5151,0.5178,0.522,0.5237,0.5262,0.5261,0.5268,0.527,0.5272,0.5273,0.5234,0.5267,0.5267,0.5267,0.5267,0.5267,0,0.493,0.4948,0.4972,0.5004,0.5026,0.5031,0.5057,0.5075,0.5102,0.5126,0.515,0.5185,0.5214,0.5238,0.5268,0.5284,0.5289,0.5292,0.5291,0.5295,0.5271,0.5265,0.5287,0.5287,0.5287,0.5287,0.5287,0.5287,0.4946,0.4976,0.4988,0.5029,0.5046,0.5077,0.5091,0.5112,0.5131,0.5169,0.5194,0.5209,0.5234,0.5267,0.5294,0.53,0.5312,0.5314,0.5322,0.5299,0.5297,0.5295,0.5288,0.5316,0.5316,0.5344,0.5344,0.5344]},{"header":{"parameterUnit":"m.s-1","parameterCategory":1,"la1":30.2991,"la2":30.254,"lo1":-89.0895,"lo2":-89.0444,"dy":0.0017,"dx":0.0017,"nx":28,"ny":28,"refTime":"2026-01-07T09:00:00:Z","depth":0,"parameterNumber":3,"parameterNumberName":"V-component_of_WINDS"},"data":[0,0,0,0,0,0,0,0,0,0,0,0,0,0,0,0,0,0,0,0,0,0,0,0,0,0,0,0,0,0,0,0,0,0,0,0,0,0,0,0,0,0,0,0,0,0,0,0,0,0,0,0,0,0,0,0,0,0,2.0684,2.0684,0,2.0658,2.0658,2.0657,2.0639,2.0639,2.0639,2.0638,2.061,2.0609,2.0608,0,0,0,0,0,0,0,0,0,0,0,0,0,2.0717,2.0716,2.0684,2.0684,2.0684,2.0658,2.0658,2.0657,2.0639,2.0639,2.0639,2.0638,2.061,2.0609,2.0608,0,0,0,0,0,0,0,0,0,0,0,0,0,2.0698,2.0716,2.0684,2.0671,2.067,2.0658,2.0658,2.0657,2.0639,2.0639,2.0639,2.0638,2.061,2.0609,2.0608,2.0607,0,0,2.0605,2.0605,0,0,0,0,0,0,0,0,2.0699,2.0697,2.0674,2.0672,2.0671,2.0652,2.0659,2.064,2.0639,2.0651,2.0638,2.0638,2.0624,2.0622,2.0617,2.0605,2.0604,2.0605,2.0605,2.0604,2.0604,0,0,0,0,0,0,0,2.07,2.0698,2.0674,2.0673,2.0671,2.0666,2.0663,2.0655,2.0639,2.065,2.0648,2.0645,2.0623,2.0618,2.0616,2.0604,2.0605,2.0604,2.0604,2.0603,2.059,2.059,0,0,0,0,0,0,2.0704,2.0699,2.0675,2.0673,2.0685,2.0666,2.0663,2.0658,2.0639,2.0636,2.0646,2.0645,2.062,2.0617,2.0615,2.0613,2.0604,2.0603,2.0603,2.059,2.059,2.059,0,0,0,0,0,0,2.0705,2.0702,2.0676,2.0686,2.0682,2.0666,2.066,2.0657,2.0653,2.0636,2.0632,2.0644,2.0619,2.0616,2.0609,2.0612,2.0603,2.0602,2.059,2.059,2.059,2.0608,0,0,0,0,0,0,2.0706,2.0702,2.0702,2.0686,2.0681,2.0671,2.066,2.0657,2.0651,2.065,2.0633,2.063,2.0619,2.0611,2.0608,2.061,2.0601,2.0589,2.059,2.059,2.0607,2.0609,2.061,0,0,0,0,0,2.0707,2.0707,2.0702,2.0699,2.0681,2.0671,2.0668,2.0656,2.0652,2.0651,2.064,2.0631,2.0612,2.061,2.0607,2.0609,2.0589,2.059,2.059,2.0606,2.0608,2.061,0,0,0,0,0,0,2.0723,2.0705,2.0699,2.0694,2.0684,2.0668,2.0667,2.0659,2.0649,2.0648,2.0633,2.0629,2.0624,2.0615,2.0614,2.0607,2.0599,2.0599,2.0613,2.0614,2.0616,2.0618,2.0601,0,0,0,0,0,2.0726,2.072,2.0704,2.0701,2.0697,2.0683,2.0678,2.067,2.0659,2.0654,2.0643,2.0632,2.0624,2.0618,2.061,2.0606,2.0602,2.0605,2.0607,2.0608,2.0609,2.0607,2.0608,2.0592,2.0592,2.0592,0,0,2.0732,2.0721,2.0718,2.0705,2.0696,2.069,2.0679,2.0673,2.0669,2.0653,2.0646,2.0637,2.0624,2.0619,2.0616,2.0612,2.0612,2.0609,2.061,2.061,2.0608,2.0609,2.061,2.0592,2.0592,2.0592,0,0,2.074,2.0731,2.0729,2.0721,2.0709,2.0699,2.0698,2.0683,2.0677,2.067,2.0659,2.0653,2.0638,2.063,2.0624,2.063,2.0621,2.0627,2.0636,2.0635,2.0636,2.0637,2.064,2.0641,2.0628,2.0628,2.0628,0,2.0749,2.0741,2.0728,2.0723,2.0718,2.0704,2.0701,2.0694,2.0679,2.0675,2.0671,2.0654,2.0644,2.0637,2.0639,2.0634,2.0633,2.063,2.0637,2.0638,2.0639,2.0641,2.0643,2.0629,2.0628,2.0628,2.0628,0,2.0753,2.0747,2.0746,2.0733,2.0727,2.0724,2.071,2.0706,2.0698,2.0689,2.0682,2.067,2.0659,2.0657,2.0648,2.0649,2.0647,2.064,2.0632,2.0641,2.0644,2.0645,2.063,2.063,2.0629,2.0629,0,0,2.077,2.0751,2.0751,2.0746,2.0732,2.0727,2.0722,2.0713,2.071,2.07,2.0696,2.0685,2.0678,2.0671,2.0662,2.0661,2.0668,2.0654,2.0653,2.0658,2.0669,2.0675,2.0676,2.0662,2.0662,2.0662,2.067,0,2.0777,2.0769,2.0758,2.0754,2.0749,2.0736,2.0732,2.0723,2.0715,2.0709,2.0699,2.0692,2.0684,2.068,2.0678,2.0667,2.067,2.0666,2.0658,2.0658,2.0663,2.0677,2.0683,2.0692,2.0671,2.0671,2.0671,0,2.0784,2.0776,2.0772,2.0759,2.0757,2.0753,2.0744,2.0739,2.0728,2.0722,2.0715,2.0705,2.07,2.0693,2.0685,2.0683,2.0679,2.0674,2.0674,2.0673,2.0666,2.0678,2.0694,2.0696,2.0672,2.0672,2.0672,0,2.0798,2.0787,2.0783,2.0778,2.0763,2.0762,2.0755,2.0744,2.0739,2.0731,2.0728,2.0719,2.0714,2.0707,2.0695,2.0691,2.0689,2.0681,2.0685,2.0685,2.0685,2.0686,2.0702,2.0681,2.0681,2.0681,2.0681,0,2.0808,2.0806,2.079,2.0787,2.0785,2.0772,2.077,2.0762,2.0753,2.0749,2.0736,2.0733,2.0717,2.0711,2.0702,2.0698,2.0695,2.0691,2.0688,2.0692,2.0693,2.069,2.069,2.0681,2.0681,2.0681,2.0681,0,2.0824,2.0813,2.0808,2.0794,2.0791,2.079,2.0778,2.0775,2.0766,2.0761,2.0759,2.0745,2.0738,2.0726,2.0715,2.0708,2.0707,2.0702,2.0711,2.071,2.0715,2.0715,2.073,2.0732,2.0709,2.071,2.071,0,2.0831,2.0829,2.0816,2.0813,2.0807,2.0802,2.0797,2.0784,2.078,2.0769,2.0767,2.076,2.0753,2.0742,2.0731,2.0723,2.0718,2.0724,2.0717,2.0722,2.072,2.0721,2.0721,2.0726,2.0727,2.0727,2.0727,0,2.0845,2.084,2.0834,2.0827,2.0822,2.0815,2.0808,2.0806,2.0791,2.0787,2.078,2.0775,2.0765,2.0758,2.0748,2.0741,2.0732,2.073,2.073,2.0735,2.074,2.0739,2.0717,2.0729,2.0729,2.0729,2.0729,2.0729,2.0857,2.0855,2.0846,2.084,2.0834,2.0828,2.0825,2.0816,2.0811,2.0802,2.0794,2.0789,2.0779,2.0765,2.0759,2.0754,2.075,2.075,2.075,2.0751,2.0753,2.0741,2.0752,2.0752,2.0752,2.0752,2.0752,0,2.0871,2.0865,2.086,2.0851,2.0846,2.0839,2.083,2.0827,2.0823,2.0814,2.0809,2.0801,2.0795,2.0783,2.0775,2.0774,2.077,2.0772,2.0773,2.0771,2.0757,2.0758,2.0776,2.0776,2.0776,2.0776,2.0776,2.0776,2.0878,2.0876,2.087,2.0864,2.0857,2.0852,2.0849,2.0843,2.0836,2.0829,2.0824,2.0817,2.0807,2.0799,2.0793,2.079,2.0788,2.0792,2.0788,2.0775,2.0772,2.077,2.0771,2.0791,2.0791,2.0803,2.0803,2.0803]}]]